This demonstration page uses our WeatherBlox Daily Observations layout. Learn more.

Left ArrowRight Arrow

31.84235, -102.49876

Hourly Observations for July 23, 2022

Temp ( °F °C ) Dew Point ( °F °C ) Humidity (%) Winds ( mph kmh ) Pressure ( in mb ) Visibility ( mi km ) Precip ( " mm )
12:53 am 00:53 Clear 88 31.1 58 14.4 36 36 S 16 26 29.87 1012 10 16 0.00 0.00
1:53 am 01:53 Clear 86 30 58 14.4 39 39 S 15 24 29.86 1011 10 16 0.00 0.00
2:53 am 02:53 Clear 84 28.9 57 13.9 40 40 S 10 17 29.85 1011 10 16 0.00 0.00
3:53 am 03:53 Clear 83 28.3 57 13.9 41 41 SSE 12 19 29.86 1011 10 16 0.00 0.00
4:53 am 04:53 Clear 81 27.2 58 14.4 45 45 SSE 15 24 29.87 1012 10 16 0.00 0.00
5:53 am 05:53 Clear 80 26.7 60 15.6 51 51 S 10 17 29.87 1012 10 16 0.00 0.00
6:53 am 06:53 Clear 78 25.6 66 18.9 67 67 S 14 22 29.89 1012 10 16 0.00 0.00
7:53 am 07:53 Sunny 78 25.6 66 18.9 67 67 S 14 22 29.91 1013 10 16 0.00 0.00
8:53 am 08:53 Sunny 80 26.7 66 18.9 62 62 S 17 28 29.92 1013 10 16 0.00 0.00
9:53 am 09:53 Sunny 83 28.3 65 18.3 55 55 S 16 26 29.93 1014 10 16 0.00 0.00
10:53 am 10:53 Sunny 86 30 64 17.8 48 48 S 18 30 29.92 1013 10 16 0.00 0.00
11:53 am 11:53 Sunny 89 31.7 62 16.7 41 41 SSW 15 24 29.91 1013 10 16 0.00 0.00
12:53 pm 12:53 Sunny 93 33.9 59 15 32 32 SSE 15 24 29.89 1012 10 16 0.00 0.00
1:53 pm 13:53 Sunny 95 35 55 12.8 26 26 SE 17 28 29.87 1012 10 16 0.00 0.00
2:53 pm 14:53 Sunny 95 35 53 11.7 24 24 S 15 24 29.85 1011 10 16 0.00 0.00
3:53 pm 15:53 Sunny 98 36.7 51 10.6 20 20 S 13 20 29.83 1010 10 16 0.00 0.00
4:53 pm 16:53 Sunny 98 36.7 53 11.7 22 22 SE 18 30 29.82 1010 10 16 0.00 0.00
5:53 pm 17:53 Mostly Sunny 97 36.1 54 12.2 24 24 S 13 20 29.81 1010 10 16 0.00 0.00
6:53 pm 18:53 Sunny 95 35 53 11.7 24 24 SE 13 20 29.80 1009 10 16 0.00 0.00
7:53 pm 19:53 Sunny 94 34.4 54 12.2 26 26 SSE 17 28 29.80 1009 10 16 0.00 0.00
8:53 pm 20:53 Clear 92 33.3 52 11.1 26 26 SSE 15 24 29.81 1010 10 16 0.00 0.00
9:53 pm 21:53 Clear 91 32.8 49 9.4 24 24 SSE 14 22 29.83 1010 10 16 0.00 0.00
10:53 pm 22:53 Clear 88 31.1 50 10 27 27 S 12 19 29.85 1011 10 16 0.00 0.00
11:53 pm 23:53 Clear 87 30.6 51 10.6 29 29 S 13 20 29.86 1011 10 16 0.00 0.00

Powered by AerisWeather